Время (UTC), дата Ветер
(°,м/с) 
Видим.   Явления Облачность Т
(°С)
Тd
(°С)
f(%) Тe
(°С)
Pmin
(гПа)
dP
(гПа)
Po
(мм)
O2
(г/м3)
Тmin Tmax R s Состояние
почвы
00 01.10.12 270 (З) 10 км    5/0 средняя 
[Ac trans]
+17.9 +14.3 79 +25  1020.8  -0.3  759  284           
03 01.10.12 270 (З) 10 км    8/0 средняя 
[Ac trans]
+17.8 +13 73 +23  1021.7  0.8  760  285           
06 01.10.12 360 (С) 10 км    4/0 средняя 
[Ac trans]
+19.8 +10.9 56 +23  1023.4  1.6  761  284  +15.2         
09 01.10.12 350 (С) 10 км    4/0 средняя, верхняя 
[Ac trans|Ci fib]
+23.1 +6.2 34 +23  1023.9  0.6  761  282           
12 01.10.12 340 (С) 10 км    ясно 
+25 +3.5 25 +25  1023.4  -0.5  761  280           
15 01.10.12 010 (С) 10 км    3/0 верхняя 
[Ci fib]
+22 +0.5 24 +22  1024.4  0.9  762  284           
18 01.10.12 020 (С) 10 км    3/0 верхняя 
[Ci fib]
+18.4 -0.8 27 +19  1025.4  0.8  762  288    +25.3       
21 01.10.12 050 (СВ) 10 км    ясно 
+10.9 +2 54 +11  1026.5  0.8  763  295           
00 02.10.12 070 (В) 10 км    4/0 верхняя 
[Ci fib]
+10.6 +2.4 57 +10  1026.8  0.3  763  296           
03 02.10.12 060 (СВ) 10 км    3/0 верхняя 
[Ci fib]
+9.7 +2.3 60 +8  1027.2  0.3  764  297           
06 02.10.12 080 (В) 10 км    4/0 верхняя 
[Ci fib]
+14.2 +4.3 51 +14  1027.4  0.4  764  292  +8.7         
09 02.10.12 090 (В) 10 км    3/0 верхняя 
[Ci fib]
+20.6 +3.3 32 +21  1026.2  -1  763  285           
12 02.10.12 110 (В) 10 км    ясно 
+22.3 +1.2 25 +22  1024.8  -1.4  762  284           
15 02.10.12 060 (СВ) 10 км    ясно 
+16.7 +2.1 37 +17  1024.5  -0.3  762  289           
18 02.10.12 080 (В) 10 км    ясно 
+16.6 +2.1 38 +16  1024.6  0.1  762  289    +22.8       
21 02.10.12 080 (В) 10 км    ясно 
+13.8 +2.8 47 +13  1024.4  -0.3  762  292           
00 03.10.12 080 (В) 10 км    ясно 
+12.2 +3.3 55 +12  1023.7  -0.8  761  293           
03 03.10.12 080 (В) 10 км    ясно 
+10.4 +3.1 61 +10  1023.4  -0.3  761  295           
06 03.10.12 080 (В) 10 км    1/0 верхняя 
[Ci fib]
+14.5 +4.8 52 +14  1022.9  -0.4  760  290  +10.1         
09 03.10.12 090 (В) 10 км    1/0 средняя 
[Ac trans]
+21.7 +2.9 29 +22  1021.4  -1.1  760  283           
12 03.10.12 080 (В) 10 км    ясно 
+22.8 +0.5 23 +23  1019.9  -1.5  758  282           
15 03.10.12 090 (В) 10 км    6/0 средняя, верхняя 
[Ac trans|Ci fib]
+19 +1 30 +19  1019.1  -0.8  758  285           
18 03.10.12 080 (В) 10 км    5/0 средняя, верхняя 
[Ac trans|Ci fib]
+16.9 +0.1 32 +17  1018.9  -0.3  758  287    +23.2       
21 03.10.12 090 (В) 10 км    6/0 средняя 
[Ac trans]
+14.9 +1.1 39 +14  1018.3  -0.6  757  289           
00 04.10.12 080 (В) 10 км    8/0 средняя, верхняя 
[Ac trans|Ci fib]
+13.5 +1.8 45 +13  1017.6  -0.7  756  290           
03 04.10.12 080 (В) 10 км    8/0 средняя, верхняя 
[Ac trans|Ci fib]
+11.3 +3.3 58 +10  1017.6  756  292           
06 04.10.12 080 (В) 10 км    9/0 средняя, верхняя 
[Ac trans|Ci fib]
+14.5 +7.4 62 +14  1017.4  756  288  +11         
09 04.10.12 080 (В) 10  10 км    8/0 средняя, верхняя 
[Ac trans|Ci fib]
+19.9 +9.5 51 +20  1016.7  -0.5  756  282           
12 04.10.12 110 (В) 10  10 км    8/0 средняя, верхняя 
[Ac trans|Ci fib]
+21.9 +9 44 +22  1015.4  -1.1  755  280           
15 04.10.12 100 (В) 10 км    9/0 средняя, верхняя 
[Ac trans|Ci fib]
+19.5 +6.3 42 +20  1015.5  755  283           
18 04.10.12 090 (В) 10 км    6/0 средняя 
[Ac trans]
+17.4 +6.9 50 +17  1015.6  0.1  755  285    +22.2       
21 04.10.12 090 (В) 10 км    6/0 средняя 
[Ac trans]
+15.7 +6.2 53 +15  1015.1  -0.5  755  287           
00 05.10.12 080 (В) 10 км    8/0 средняя 
[Ac trans]
+14.2 +6.3 59 +14  1014.6  -0.5  754  288           
03 05.10.12 080 (В) 10 км    9/0 средняя 
[Ac trans]
+13.3 +7.1 66 +12  1014.4  -0.2  754  289           
06 05.10.12 080 (В) 10 км  в посл. час ливневой дождь  9/4 1000 м кучево-дожд., средняя 
[Cb calv|Ac trans]
+13.9 +9.5 75 +13  1014.8  0.4  754  288  +13.2         
09 05.10.12 100 (В) 10 км    9/3 300 м средняя 
[Sc|Ac trans]
+18.4 +12.6 69 +24  1014.1  -0.6  754  282           
12 05.10.12 110 (В) 10 км    9/0 средняя, верхняя 
[Ac trans|Ci fib]
+21 +12.5 58 +26  1013.4  -0.6  754  280           
15 05.10.12 030 (СВ) 10 км  слаб. ливневой дождь  9/3 600 м кучево-дожд., средняя 
[Cb calv|Ac trans]
+19.1 +15.2 78 +29  1013.1  -0.3  753  280           
18 05.10.12 тихо ()   4000 м  дымка{ливн. осадки}  6/0 средняя, верхняя 
[Ac trans|Ci fib]
+16.5 +14.6 89 +24  1013.4  0.2  753  283    +21.3  0.0     
21 05.10.12 280 (З) 4000 м  дымка  6/3 600 м средняя 
[Sc|Ac trans]
+16.4 +14.9 91 +25  1013.9  0.5  754  283           
00 06.10.12 280 (З) 10 км    4/0 средняя 
[Ac trans]
+16.1 +13.6 85 +22  1014.7  0.7  754  284           
03 06.10.12 280 (З) 4000 м  дымка  3/0 средняя, верхняя 
[Ac trans|Ci fib]
+13.8 +12.5 92 +18  1016.9  756  288           
09 06.10.12 280 (З) 10 км    8/1 300 м верхняя 
[Sc|Ci fib]
+19.5 +5.5 40 +20  1019.8  0.4  758  284           
12 06.10.12 280 (З) 10 км    8/0 средняя, верхняя 
[Ac trans|Ci fib]
+21.3 +3.9 32 +21  1019.7  758  283           
15 06.10.12 270 (З) 10 км    5/0 средняя, верхняя 
[Ac trans|Ci fib]
+17.3 +6.9 50 +18  1020.4  0.4  759  286           
18 06.10.12 280 (З) 10 км    4/0 средняя, верхняя 
[Ac trans|Ci fib]
+15.6 +10.8 73 +18  1021  0.6  759  287    +21.6       
21 06.10.12 280 (З) 4000 м  дымка  3/0 верхняя 
[Ci fib]
+13 +12.1 94 +17  1021  -0.1  759  290           
00 07.10.12 тихо ()   0400 м  туман  ясно 
+10.8 +10.8 100 +13  1020.6  -0.5  759  292           
03 07.10.12 220 (ЮЗ) 0100 м  туман  ?/?  
+11.4 +11.4 100 +15  1020.4  -0.1  759  291           
06 07.10.12 240 (ЮЗ) 0100 м  туман  ?/?  
+13 +13 100 +18  1020.4  759  289  +8.1         
09 07.10.12 250 (З) 10 км  {туман}  3/0 верхняя 
[Ci fib]
+20.1 +8.9 48 +20  1019  -1.1  758  283           
12 07.10.12 260 (З) 10 км  {туман}  5/0 средняя, верхняя 
[Ac trans|Ci fib]
+22.5 +3.8 29 +23  1016.8  -2.1  756  281           
15 07.10.12 330 (СЗ) 10 км    3/0 средняя 
[Ac trans]
+17 +4.9 45 +18  1015.9  -1  755  286           
18 07.10.12 тихо ()   10 км    3/0 средняя 
[Ac trans]
+13 +5.9 62 +13  1015.5  -0.5  755  289    +23       
21 07.10.12 050 (СВ) 10 км    ясно 
+12 +4.6 61 +12  1014.3  -1.1  754  290           
00 08.10.12 080 (В) 10 км    ясно 
+10.7 +6.2 74 +10  1012.7  -1.6  753  291           
03 08.10.12 080 (В) 10 км    1/0 средняя 
[Ac trans]
+10.9 +5.6 70 +10  1011.1  -1.5  752  290           
06 08.10.12 100 (В) 10 км    4/0 средняя 
[Ac trans]
+15.8 +9.5 66 +17  1009.6  -1.1  751  284  +10.1         
09 08.10.12 160 (Ю) 10 км    3/0 средняя 
[Ac trans]
+25.7 +11.8 42 +29  1007.4  -2  749  274           
12 08.10.12 210 (ЮЗ) 10 км    5/4 1000 м средняя 
[Cu med, cong|Ac trans]
+27.3 +10.7 35 +29  1005.5  -1.7  748  272           
15 08.10.12 260 (З) 10 км    9/4 1000 м кучево-дожд., средняя 
[Cb calv|Ac trans]
+21.4 +11.1 52 +24  1005.1  -0.6  747  277           
21 08.10.12 140 (ЮВ) 4000 м  гроза, ливневой дождь  10/8 240 м кучево-дожд., средняя 
[Cb cap|Ac trans]
+16 +14.6 91 +25  1004.2  -0.6  747  281           
00 09.10.12 тихо ()   0900 м  туман{гроза, ливн. осадки}  8/5 120 м кучево-дожд., средняя 
[Cb calv|Ac trans]
+14.7 +13.6 93 +21  1003.5  -0.8  746  282           
03 09.10.12 250 (З) 4000 м  слаб. дождь{туман}  10/8 210 м средняя 
[Frnb|As op]
+15.5 +13.6 88 +21  1003.2  -0.1  746  282           
06 09.10.12 230 (ЮЗ) 10 км  {ливн. осадки, дождь}  9/8 300 м кучево-дожд., средняя 
[Cb calv|Ac trans]
+13.7 +11.3 85 +16  1004.8  1.4  747  284  +13.3    27     
09 09.10.12 250 (З) 10-16{16}  10 км  в посл. час ливневой дождь  9/6 750 м кучево-дожд., средняя 
[Cb calv|Ac trans]
+13.6 +6.5 62 +12  1006.5  1.5  748  286           
12 09.10.12 260 (З) 9-16{17}  10 км  слаб. ливневой дождь  9/6 840 м кучево-дожд., средняя 
[Cb calv|Ac trans]
+12.7 +7.7 72 +11  1007.6  0.9  749  287           
15 09.10.12 260 (З) 9{15}  10 км  в посл. час ливневой дождь  8/8 1000 м кучево-дожд. 
[Cb calv]
+10.8 +5 67 +9  1009.8  751  290           
18 09.10.12 270 (З) 6{15}  10 км  {ливн. осадки}  4/0 средняя 
[Ac trans]
+10.1 +5.4 73 +9  1011.9  2.1  752  291    +14.6     
21 09.10.12 280 (З) 10 км    ясно 
+10.1 +6.1 76 +10  1013.1  1.2  753  292           
00 10.10.12 280 (З) 10 км    4/0 средняя 
[Ac trans]
+9.6 +4.8 72 +10  1013.9  0.6  754  293           
03 10.10.12 240 (ЮЗ) 10 км    5/0 средняя 
[Ac trans]
+7.5 +5.7 88 +8  1014.5  0.6  754  295           
06 10.10.12 220 (ЮЗ) 10 км    9/0 средняя 
[Ac trans]
+10.4 +7.3 81 +11  1016.1  1.6  755  292  +6.9         
09 10.10.12 190 (Ю) 10 км    9/0 средняя 
[Ac trans]
+15.4 +6.5 55 +15  1016  755  287           
12 10.10.12 190 (Ю) 10 км    6/3 1000 м средняя 
[Sc|Ac trans]
+16.3 +7.2 55 +16  1015.8  -0.2  755  286           
15 10.10.12 130 (ЮВ) 10 км    4/0 средняя 
[Ac trans]
+11.1 +7.4 78 +11  1016.1  0.2  755  291           
18 10.10.12 120 (ЮВ) 10 км    4/0 средняя 
[Ac trans]
+10.3 +6.4 77 +10  1017  0.8  756  292    +16.5       
21 10.10.12 070 (В) 10 км    ясно 
+8.6 +5.3 80 +9  1017.3  0.3  756  295           
00 11.10.12 070 (В) 10 км    ясно 
+7.3 +5 85 +7  1017.3  -0.1  756  296           
03 11.10.12 070 (В) 10 км    1/0 средняя 
[Ac trans]
+6.3 +4.8 90 +5  1017.1  -0.2  756  297           
06 11.10.12 080 (В) 10 км    5/0 средняя, верхняя 
[Ac trans|Ci fib]
+12.3 +8.1 76 +11  1016.9  756  290  +6.1         
09 11.10.12 090 (В) 10 км    9/0 средняя, верхняя 
[Ac trans|Ci fib]
+17.7 +8.8 56 +18  1015.8  -0.9  755  284           
12 11.10.12 100 (В) 10 км    9/0 средняя, верхняя 
[Ac trans|Ci fib]
+18.2 +8 51 +18  1013.9  -1.8  754  283           
15 11.10.12 090 (В) 10 км    9/0 средняя, верхняя 
[Ac trans|Ci fib]
+16.4 +7.9 57 +16  1013.3  -0.6  753  285           
18 11.10.12 100 (В) 10 км    10/3 1000 м средняя 
[Sc|Ac und]
+15.4 +7 57 +15  1012.3  -1.1  753  286    +18.7       
21 11.10.12 070 (В) 10 км    10/3 1000 м средняя 
[Sc|Ac und]
+14.2 +4.5 52 +14  1011.6  -0.6  752  287           
00 12.10.12 100 (В) 10 км  слаб. ливневой дождь  10/4 900 м кучево-дожд., средняя 
[Cb calv|Ac und]
+11.6 +8.6 82 +11  1011.3  -0.4  752  289           
03 12.10.12 090 (В) 4000 м  слаб. ливневой дождь  10/6 240 м кучево-дожд., средняя 
[Cb calv|Ac und]
+10.7 +9.3 91 +10  1010.8  -0.5  751  290           
06 12.10.12 090 (В) 10 км  {ливн. осадки}  9/5 210 м кучево-дожд., средняя 
[Cb calv|Ac trans]
+10.8 +9.2 90 +10  1012.1  1.3  752  290  +10.2       
09 12.10.12 100 (В) 10 км    9/9 450 м 
[Sc]
+12.5 +8.4 76 +13  1012.5  0.5  753  289           
12 12.10.12 170 (Ю) 10 км    9/5 630 м кучево-дожд., средняя 
[Cb calv|Ac trans]
+14.5 +9.4 71 +15  1013  0.4  753  286           
15 12.10.12 260 (З) 10 км    9/8 500 м кучево-дожд., средняя 
[Cb calv|Ac trans]
+14.3 +11.5 83 +18  1013.8  0.8  754  286           
21 12.10.12 290 (З) 10 км    ясно 
+9.1 +6.1 81 +8  1018  1.8  757  294           
00 13.10.12 270 (З) 10 км    1/1 300 м 
[Sc]
+7.6 +4.4 80 +7  1018.6  0.5  757  296           
03 13.10.12 280 (З) 10 км    1/0 верхняя 
[Ci fib]
+6.9 +3 76 +6  1019.9  1.3  758  297           
06 13.10.12 280 (З) 10 км    ясно 
+9.1 +2.7 64 +8  1021.2  0.9  759  296  +6.3         
09 13.10.12 290 (З) 10 км    1/1 600 м 
[Sc]
+12.4 +0.9 45 +11  1021.4  0.8  759  293           
12 13.10.12 280 (З) 10 км    ясно 
+14.7 +1.8 42 +14  1021.1  -0.3  759  290           
15 13.10.12 260 (З) 10 км    6/0 средняя, верхняя 
[Ac trans|Ci fib]
+10.9 +5 67 +11  1022.2  0.8  760  294           
18 13.10.12 330 (СЗ) 4000 м  дым  3/0 верхняя 
[Ci fib]
+8.2 +5.2 81 +9  1022.8  0.4  760  297    +14.8       
21 13.10.12 060 (СВ) 10 км    8/0 средняя, верхняя 
[Ac trans|Ci fib]
+5.8 +1.5 74 +5  1023.3  0.4  761  300           
00 14.10.12 090 (В) 10 км    9/3 300 м средняя 
[Sc|Ac trans]
+7.2 +2.9 74 +5  1023.8  0.6  761  298           
03 14.10.12 090 (В) 10 км  {ливн. осадки}  10/3 600 м кучево-дожд., средняя 
[Cb calv|Ac und]
+6.7 +4 83 +5  1023.3  -0.5  761  299           
06 14.10.12 090 (В) 10 км  {ливн. осадки}  10/0 средняя 
[Ac und]
+8.2 +4.4 77 +7  1024  0.5  761  297  +5.2    0.0     
09 14.10.12 100 (В) 10 км    9/0 средняя 
[Ac trans]
+12 +5.2 63 +11  1022.9  -0.7  760  293           
12 14.10.12 100 (В) 10 км    4/0 средняя 
[Ac trans]
+15.1 +5.5 53 +14  1020.7  -2.1  759  289           
15 14.10.12 090 (В) 10 км    9/0 средняя, верхняя 
[Ac trans|Ci fib]
+13.2 +4.7 56 +12  1020.9  0.1  759  291           
18 14.10.12 090 (В) 10 км    9/0 средняя 
[Ac trans]
+11.9 +3.9 58 +11  1020.9  0.2  759  292    +15.3       
21 14.10.12 090 (В) 10 км    9/0 средняя 
[Ac trans]
+10.8 +4 63 +9  1020.5  -0.5  759  293           
00 15.10.12 080 (В) 10 км    6/0 средняя 
[Ac trans]
+9.7 +4.5 70 +8  1020.1  -0.5  758  294           
03 15.10.12 080 (В) 10 км    6/0 средняя, верхняя 
[Ac trans|Ci fib]
+9.2 +4.8 74 +8  1020.1  758  295           
06 15.10.12 100 (В) 10 км    8/0 средняя, верхняя 
[Ac trans|Ci fib]
+12.4 +8.5 77 +12  1020.2  0.1  758  291  +9         
09 15.10.12 130 (ЮВ) 10 км    3/0 средняя 
[Ac trans]
+19.3 +11 59 +22  1019.4  -0.5  758  283           
12 15.10.12 150 (ЮВ) 10 км    5/0 средняя, верхняя 
[Ac trans|Ci fib]
+22.2 +11.3 50 +25  1019.1  -0.1  758  280           
15 15.10.12 070 (В) 10 км    9/0 средняя, верхняя 
[Ac trans|Ci fib]
+18.2 +11.1 63 +22  1019.7  0.4  758  284           
18 15.10.12 100 (В) 4000 м  дым  5/0 средняя 
[Ac trans]
+13.6 +9.9 78 +14  1020.5  0.6  759  289    +22.7       
21 15.10.12 080 (В) 10 км    4/0 средняя 
[Ac trans]
+14.4 +11 80 +18  1020.9  0.3  759  288           
00 16.10.12 060 (СВ) 10 км    3/0 средняя 
[Ac trans]
+11 +9.5 90 +11  1021.3  0.2  759  292           
03 16.10.12 080 (В) 10 км    5/0 средняя 
[Ac trans]
+11.1 +9.8 92 +12  1021.9  0.5  760  292           
06 16.10.12 090 (В) 10 км    9/0 средняя 
[Ac trans]
+13.7 +11.5 87 +17  1023.1  1.3  761  290  +10         
09 16.10.12 090 (В) 10 км    4/0 средняя 
[Ac trans]
+18.2 +13 72 +23  1023.2  0.2  761  285           
12 16.10.12 090 (В) 10 км    4/0 средняя 
[Ac trans]
+20.7 +14.1 66 +27  1022.9  -0.3  761  282           
15 16.10.12 080 (В) 10 км    6/0 средняя, верхняя 
[Ac trans|Ci fib]
+16.5 +14 85 +23  1023.3  0.3  761  286           
18 16.10.12 090 (В) 4000 м  дымка  6/0 средняя 
[Ac trans]
+15.9 +14 88 +23  1023.3  761  287    +20.8       
21 16.10.12 100 (В) 10 км    9/0 средняя 
[Ac trans]
+15.8 +13.3 85 +22  1022.6  -0.7  760  287           
00 17.10.12 090 (В) 10 км    4/0 средняя 
[Ac trans]
+13.3 +11.5 89 +16  1022.2  -0.5  760  290           
03 17.10.12 080 (В) 2500 м  местами туман поземный  3/0 средняя 
[Ac trans]
+11.7 +10.4 92 +12  1022.8  0.5  760  292           
06 17.10.12 110 (В) 0200 м  слаб. морось{туман}  ?/?  
+13.8 +13.8 100 +19  1022.9  0.1  760  289  +11.5         
09 17.10.12 100 (В) 10 км  {морось, туман}  5/5 450 м 
[Sc]
+18.7 +14.3 76 +26  1022.3  -0.4  760  284           
12 17.10.12 110 (В) 10 км  {морось, туман}  4/1 600 м верхняя 
[Sc|Ci fib]
+20 +14.1 69 +27  1021.1  -1.2  759  282           
15 17.10.12 100 (В) 10 км    8/0 верхняя 
[Ci fib]
+17.1 +13.6 80 +23  1020.7  -0.5  759  285           
21 17.10.12 100 (В) 10 км    5/0 верхняя 
[Ci fib]
+12.4 +10.7 89 +14  1020  -0.2  758  290           
00 18.10.12 090 (В) 10 км    3/0 верхняя 
[Ci fib]
+12.5 +10.9 90 +14  1019.7  -0.3  758  290           
03 18.10.12 100 (В) 10 км    4/0 средняя, верхняя 
[Ac trans|Ci fib]
+11 +9.8 92 +12  1020  0.1  758  292           
06 18.10.12 110 (В) 4000 м  дымка  8/5 240 м средняя 
[Frnb|Ac trans]
+13 +11.4 90 +16  1020.5  0.6  759  290  +10.9         
09 18.10.12 180 (Ю) 0400 м  слаб. морось{туман}  10/10 100 м 
[St]
+14.5 +13.3 93 +21  1020.9  0.6  759  288           
12 18.10.12 270 (З) 10 км  {морось, туман}  5/1 300 м средняя 
[Sc|Ac trans]
+19.5 +10.2 55 +21  1020.7  0.1  759  284           
15 18.10.12 270 (З) 10 км    4/0 средняя 
[Ac trans]
+16 +10.9 72 +19  1021  0.1  759  287           
18 18.10.12 270 (З) 10 км    3/0 средняя 
[Ac trans]
+13.2 +10.7 85 +16  1021.9  0.8  760  290    +20.4  0.0     
21 18.10.12 тихо ()   2500 м  туман местами  ясно 
+10.5 +10.2 98 +12  1022.4  0.4  760  293           
00 19.10.12 050 (СВ) <0100 м  туман  ?/?  
+8.9 +8.9 100 +10  1023  0.6  760  295           
03 19.10.12 080 (В) 0300 м  туман  ?/?  
+10.3 +10.3 100 +11  1023.6  0.6  761  294           
06 19.10.12 090 (В) 2500 м  в посл. час ливневой дождь{туман}  9/8 100 м кучево-дожд., средняя 
[Cb calv|Ac trans]
+12.7 +11.9 95 +15  1024.1  0.6  761  291  +7.4         
09 19.10.12 080 (В) 10 км  слаб. ливневой дождь  10/5 кучево-дожд., средняя 
[Cb calv|Ac trans]
+15.4 +14.1 92 +22  1024.6  0.5  762  288           
12 19.10.12 100 (В) 10 км  {ливн. осадки}  10/6 660 м средняя 
[Sc|Ac und]
+16.9 +13.6 81 +23  1025.2  0.6  762  287           
15 19.10.12 090 (В) 10 км    9/4 300 м средняя, верхняя 
[Sc|Ac trans|Ci fib]
+16.7 +12.4 76 +21  1025.4  0.1  762  287           
18 19.10.12 090 (В) 10 км    9/4 600 м средняя 
[Sc|Ac trans]
+16.3 +10.9 70 +18  1026.1  0.6  763  288    +17.5     
21 19.10.12 090 (В) 10 км    6/0 средняя 
[Ac trans]
+12.7 +9.1 79 +12  1026.5  0.2  763  292           
00 20.10.12 070 (В) 10 км    5/0 средняя 
[Ac trans]
+11.1 +7.5 78 +10  1027  0.4  763  294           
03 20.10.12 070 (В) 10 км    3/0 средняя 
[Ac trans]
+8.7 +6.6 87 +7  1027  -0.1  763  297           
06 20.10.12 090 (В) 10 км    5/5 270 м 
[St]
+10.5 +8 85 +9  1027.6  0.6  764  295  +8.3         
09 20.10.12 090 (В) 10 км    3/0 средняя 
[Ac trans]
+16.5 +10.3 67 +17  1027.1  -0.3  764  288           
12 20.10.12 080 (В) 10 км    ясно 
+18.5 +9.2 55 +18  1026  -0.9  763  286           
15 20.10.12 080 (В) 10 км    ясно 
+15.4 +7 57 +15  1026.4  0.1  763  290           
18 20.10.12 080 (В) 10 км    ясно 
+13.7 +4.4 53 +13  1026.8  0.4  763  292    +18.6       
21 20.10.12 070 (В) 10 км    ясно 
+10.4 +4.4 66 +9  1026.5  -0.4  763  296           
00 21.10.12 070 (В) 10 км    ясно 
+9.4 +4.8 73 +8  1026.6  763  296           
03 21.10.12 080 (В) 10 км    4/4 420 м 
[Sc]
+8.8 +5.5 80 +7  1026.5  -0.1  763  297           
06 21.10.12 080 (В) 10 км    9/5 240 м средняя 
[St|Ac trans]
+9.3 +6.7 84 +7  1027.1  0.6  763  296  +8         
09 21.10.12 100 (В) 10 км    3/0 средняя 
[Ac trans]
+15.1 +8.8 66 +14  1026.7  -0.2  763  290           
12 21.10.12 090 (В) 10 км    ясно 
+17.6 +6.6 48 +17  1024.7  -1.9  762  287           
15 21.10.12 070 (В) 10 км    ясно 
+11.7 +4.6 62 +11  1024.4  -0.4  761  294           
18 21.10.12 080 (В) 10 км    ясно 
+11.5 +4.8 63 +11  1024.2  -0.2  761  294    +17.7       
21 21.10.12 070 (В) 10 км    ясно 
+9.2 +3.6 68 +8  1024.2  -0.1  761  296           
00 22.10.12 060 (СВ) 10 км    ясно 
+8.6 +3.6 71 +7  1023.2  -0.9  761  297           
03 22.10.12 070 (В) 10 км    1/0 средняя 
[Ac trans]
+6.6 +3.6 81 +5  1022.6  -0.5  760  298           
09 22.10.12 090 (В) 10 км    3/1 300 м средняя 
[Sc|Ac trans]
+13.4 +9.7 78 +14  1021.5  -1.1  759  290           
12 22.10.12 100 (В) 10 км    ясно 
+15.7 +10.3 70 +17  1019.6  -1.7  758  287           
15 22.10.12 090 (В) 10 км    3/0 средняя 
[Ac trans]
+11.2 +8.8 85 +11  1019.2  -0.5  758  292           
18 22.10.12 тихо ()   4000 м  местами туман поземный  ясно 
+8.7 +6.6 87 +9  1019.2  -0.1  758  295    +16       
21 22.10.12 тихо ()   0200 м  туман  ясно 
+7.4 +7.4 100 +7  1019.1  -0.2  757  296           
00 23.10.12 350 (С) 4000 м  дымка{туман}  ясно 
+9.9 +8.3 90 +9  1019  757  293           
03 23.10.12 050 (СВ) 10 км    ясно 
+5.5 +1.3 74 +6  1018.5  -0.6  757  299           
06 23.10.12 060 (СВ) 10 км    4/0 средняя, верхняя 
[Ac trans|Ci fib]
+11.4 +4.9 64 +11  1019  0.6  758  292  +3.9         
09 23.10.12 110 (В) 10 км    3/0 средняя, верхняя 
[Ac trans|Ci fib]
+15.9 +6.9 55 +16  1018.5  -0.3  757  287           
12 23.10.12 060 (СВ) 10 км    3/0 средняя 
[Ac trans]
+18 +2.2 35 +19  1017.4  -1  756  286           
15 23.10.12 050 (СВ) 10 км    4/0 средняя 
[Ac trans]
+10.4 +2.4 58 +10  1017.6  756  293           
18 23.10.12 080 (В) 10 км    4/0 средняя 
[Ac trans]
+9.3 +6.6 83 +8  1018.3  0.6  757  294    +18.1       
21 23.10.12 080 (В) 10 км    3/0 средняя 
[Ac trans]
+6.9 +4.5 85 +4  1017.6  -0.8  756  297           
00 24.10.12 090 (В) 10 км    3/0 средняя 
[Ac trans]
+5.4 +3.2 86 +3  1015.8  -1.7  755  298           
03 24.10.12 080 (В) 10 км    3/0 средняя 
[Ac trans]
+4.3 +2.3 87 +2  1015.3  -0.5  755  299           
06 24.10.12 080 (В) 10 км    8/0 средняя, верхняя 
[Ac trans|Ci fib]
+6.4 +3.5 82 +5  1015.3  755  297  +4         
09 24.10.12 080 (В) 10 км    9/0 средняя 
[Ac trans]
+10.4 +5.6 72 +11  1014.2  -0.8  754  292           
12 24.10.12 100 (В) 10 км    6/0 средняя 
[Ac trans]
+13.6 +6.7 63 +14  1013.7  -0.4  754  288           
15 24.10.12 140 (ЮВ) 4000 м  дым  4/0 средняя 
[Ac trans]
+8.9 +5.9 81 +10  1014.2  0.3  754  293           
18 24.10.12 тихо ()   4000 м  дымка  5/0 средняя 
[Ac trans]
+7.4 +5 85 +7  1014.7  0.5  754  295    +14       
21 24.10.12 040 (СВ) 4000 м  дымка  5/0 средняя, верхняя 
[Ac trans|Ci fib]
+6.9 +4.7 86 +6  1015.2  0.3  755  296           
00 25.10.12 060 (СВ) 4000 м  дымка  8/0 средняя 
[Ac trans]
+4.2 +3 92 +3  1015.7  0.4  755  299           
03 25.10.12 070 (В) 2000 м  дымка  10/10 100 м 
[St]
+5 +4.1 94 +3  1015.3  -0.3  755  298           
06 25.10.12 080 (В) 4000 м  дымка  10/10 180 м 
[St]
+5.2 +3.6 89 +3  1015.3  0.3  755  298  +4.1         
09 25.10.12 080 (В) 4000 м  дымка  10/10 240 м 
[Sc]
+5.9 +4 88 +4  1014.9  -0.8  754  297           
12 25.10.12 070 (В) 4000 м  дымка{дождь}  10/10 240 м 
[St]
+6.3 +4.7 90 +4  1012.7  -2.1  753  296           
15 25.10.12 030 (СВ) 4000 м  слаб. дождь  10/10 270 м 
[Sc]
+6.2 +4.3 88 +6  1012.1  -0.5  752  296           
18 25.10.12 330 (СЗ) 3000 м  в посл. час дождь  10/10 210 м 
[St]
+5.7 +4.5 92 +5  1011.7  -0.4  752  296    +6.5  0.0     
21 25.10.12 320 (СЗ) 4000 м  дымка  9/9 150 м 
[Frnb]
+5.8 +4.4 91 +6  1011.2  -0.5  752  296           
00 26.10.12 300 (СЗ) 4000 м  дымка  8/8 180 м 
[Sc]
+4.6 +2.9 89 +4  1010.9  -0.3  751  297           
03 26.10.12 220 (ЮЗ) 0100 м  туман  ?/?  
+3.4 +2.6 94 +3  1010.5  -0.3  751  298           
06 26.10.12 210 (ЮЗ) 2500 м  дымка{туман}  8/5 120 м средняя 
[St|Ac trans]
+6.4 +5.6 95 +5  1010.5  751  295           
09 26.10.12 210 (ЮЗ) 10 км    4/0 средняя 
[Ac trans]
+12.8 +6.8 67 +12  1009.4  -0.8  750  288           
12 26.10.12 210 (ЮЗ) 10 км    1/0 средняя 
[Ac trans]
+15.7 +6.4 54 +15  1008.2  -1.1  750  285           
15 26.10.12 220 (ЮЗ) 10 км    1/0 средняя 
[Ac trans]
+11.4 +6.1 70 +11  1008.4  0.1  750  289    +16       
18 26.10.12 250 (З) 10 км  слаб. ливневой дождь  10/5 1000 м кучево-дожд., средняя 
[Cb calv|Ac und]
+12.1 +7.4 73 +12  1009.4  0.6  750  288           
21 26.10.12 240 (ЮЗ) 4000 м  в посл. час ливневой дождь  10/6 1000 м кучево-дожд., средняя 
[Cb calv|Ac und]
+12.7 +11.1 90 +15  1009.8  0.4  751  287           
00 27.10.12 320 (СЗ) 4000 м  дымка{ливн. осадки}  10/5 800 м кучево-дожд., средняя 
[Cb calv|Ac und]
+11.7 +8.8 82 +11  1011.9  1.5  752  289           
03 27.10.12 010 (С) 10 км    6/0 кучево-дожд., средняя 
[Cb calv|Ac trans]
+8.1 +4.4 77 +7  1014.6  2.6  754  294  +8       
06 27.10.12 040 (СВ) 10 км    9/0 средняя, верхняя 
[Ac trans|Ci fib]
+7.4 +1.8 68 +6  1017.5  2.8  756  296  +6.4         
09 27.10.12 070 (В) 10 км    8/0 верхняя 
[Ci fib]
+10.6 +0.2 49 +10  1018.6  1.1  757  294           
12 27.10.12 080 (В) 10 км    6/0 верхняя 
[Ci fib]
+12.1 +0.7 46 +12  1018  -0.5  757  292           
15 27.10.12 080 (В) 10 км    4/0 средняя 
[Ac trans]
+7.4 +0.7 62 +7  1018.4  0.1  757  297    +12.3       
18 27.10.12 100 (В) 10 км    4/0 средняя 
[Ac trans]
+6 +0.2 66 +4  1018.3  757  298           
21 27.10.12 090 (В) 10 км    3/0 средняя 
[Ac trans]
+5.6 -0.6 64 +3  1017.8  -0.5  756  299           
00 28.10.12 080 (В) 10 км    5/3 300 м средняя 
[St|Ac trans]
+3.8 +0.3 78 +2  1016.9  -1  756  300           
03 28.10.12 080 (В) 10 км    4/0 средняя, верхняя 
[Ac trans|Ci fib]
+4.4 +2.5 87 +3  1016.3  -0.5  755  299  +3.8         
06 28.10.12 100 (В) 10 км    9/0 средняя, верхняя 
[Ac trans|Ci fib]
+8.7 +6.1 84 +8  1016  -0.1  755  294           
09 28.10.12 120 (ЮВ) 10 км    8/0 средняя, верхняя 
[Ac trans|Ci fib]
+16.8 +9.9 64 +18  1014.8  -0.9  755  285           
12 28.10.12 180 (Ю) 10 км    9/0 средняя, верхняя 
[Ac trans|Ci fib]
+20.8 +7.6 43 +21  1013.3  -1.3  753  281           
15 28.10.12 150 (ЮВ) 10 км    9/0 средняя, верхняя 
[Ac trans|Ci fib]
+17.3 +8 54 +18  1013.2  -0.1  753  284    +21.7       
18 28.10.12 140 (ЮВ) 10 км    9/0 средняя, верхняя 
[Ac trans|Ci fib]
+16.2 +8.6 61 +17  1012.7  -0.5  753  285           
21 28.10.12 180 (Ю) 10 км    9/0 средняя 
[Ac trans]
+16 +9 63 +16  1012.5  -0.2  753  285           
00 29.10.12 220 (ЮЗ) 10 км  в посл. час ливневой дождь  10/3 600 м кучево-дожд., средняя 
[Cb calv|As op]
+14.1 +9.6 74 +16  1012.9  0.3  753  287           
03 29.10.12 150 (ЮВ) 4000 м  слаб. ливневой дождь  10/5 330 м кучево-дожд., средняя 
[Cb calv|Ac und]
+13.4 +10.8 84 +15  1011.7  -1.1  752  287  +12.8    0.8     
06 29.10.12 120 (ЮВ) 10 км  слаб. ливневой дождь  10/8 270 м кучево-дожд., средняя 
[Cb calv|Ac und]
+13.9 +11.6 86 +17  1012.2  0.4  752  286           
09 29.10.12 170 (Ю) 10 км  {ливн. осадки}  9/5 800 м кучево-дожд., средняя 
[Cb calv|Ac und]
+16.7 +12.1 74 +21  1011.7  -0.4  752  283           
12 29.10.12 170 (Ю) 10 км  {ливн. осадки}  10/3 600 м кучево-дожд., средняя 
[Cb calv|Ac und]
+17.4 +12.2 72 +22  1010.9  -0.8  752  282           
15 29.10.12 190 (Ю) 10 км    9/1 600 м кучево-дожд., средняя 
[Cb calv|Ac trans]
+17.2 +10.4 64 +20  1010.4  -0.5  751  283    +17.8  0.7     
18 29.10.12 160 (Ю) 10 км    10/0 средняя 
[Ac und]
+17.4 +8.1 54 +18  1009.8  -0.5  751  283           
21 29.10.12 180 (Ю) 10 км    9/3 600 м кучево-дожд., средняя 
[Cb calv|Ac trans]
+16.5 +8.8 60 +17  1009.5  -0.3  751  284           
00 30.10.12 240 (ЮЗ) 10 км    8/0 средняя, верхняя 
[Ac trans|Ci fib]
+15.8 +8.4 61 +16  1009  -0.5  750  284           
03 30.10.12 тихо ()   10 км    3/0 средняя 
[Ac trans]
+13.3 +8.4 72 +13  1008.7  -0.3  750  287  +12.7         
06 30.10.12 090 (В) 10 км    9/0 средняя, верхняя 
[Ac trans|Ci]
+13.9 +9.8 76 +15  1008.4  -0.3  750  286  +10.4         
09 30.10.12 100 (В) 10 км    9/3 1000 м кучево-дожд., средняя, верхняя 
[Cb calv|Ac trans|Ci]
+19.5 +12.2 63 +24  1006.8  -1.4  749  279           
12 30.10.12 090 (В) 10 км  слаб. ливневой дождь  9/4 1000 м кучево-дожд., средняя 
[Cb calv|Ac trans]
+20.6 +11.6 56 +24  1004.3  -2.3  747  278           
15 30.10.12 090 (В) 10 км  слаб. ливневой дождь  9/4 1000 м кучево-дожд., средняя 
[Cb calv|Ac trans]
+16.8 +11.4 70 +20  1004.8  0.4  747  281    +22.4  0.0     
18 30.10.12 200 (Ю) 10 км  {ливн. осадки}  10/4 1000 м кучево-дожд., средняя 
[Cb calv|Ac und]
+18.8 +10.6 59 +21  1006.1  1.3  748  280           
21 30.10.12 220 (ЮЗ) 10 км  в посл. час ливневой дождь  10/5 900 м кучево-дожд., средняя 
[Cb calv|Ac und]
+16.6 +12.2 75 +21  1007.8  1.6  749  282           
03 31.10.12 250 (З) 9-14{15}  10 км    9/3 600 м кучево-дожд., средняя 
[Cb calv|Ac trans]
+12.1 +7.3 72 +10  1012.9  2.5  753  289  +12.2    0.0     
06 31.10.12 250 (З) 9-12{15}  10 км    8/8 660 м 
[Sc]
+9.4 +4.5 71 +7  1017.4  4.2  756  294  +9.2         
09 31.10.12 270 (З) 7-10{12}  10 км    1/1 600 м 
[Sc]
+9.4 +1.1 56 +7  1019.8  2.3  758  295           
12 31.10.12 260 (З) 5{12}  10 км    5/0 верхняя 
[Ci fib]
+11.8 -0.2 44 +11  1021  1.2  759  293           
15 31.10.12 270 (З) 10 км    6/0 верхняя 
[Ci fib]
+8.9 +2.2 63 +9  1023  1.8  760  296    +12.2       
18 31.10.12 300 (СЗ) 10 км    8/0 верхняя 
[Ci]
+8.2 +3.9 74 +8  1024.5  1.5  761  297           
21 31.10.12 360 (С) 10 км    8/0 верхняя 
[Ci]
+6.7 +2.8 76 +7  1025.2  0.6  762  299           
00 01.11.12 060 (СВ) 10 км    5/0 верхняя 
[Ci fib]
+3.3 -0.1 78 +1  1025.8  0.5  762  304           
03 01.11.12 080 (В) 10 км    9/0 средняя 
[Ac trans]
+3.6 -0.9 72 +2  1027.1  1.3  763  304  +1.4         
06 01.11.12 090 (В) 10 км    8/0 средняя, верхняя 
[Ac trans|Ci fib]
+4.8 -1 66 +3  1027.5  0.5  764  303           
09 01.11.12 070 (В) 7-10{10}  10 км    5/0 верхняя 
[Ci fib]
+8.9 -0.1 53 +7  1027  -0.2  763  298           
12 01.11.12 070 (В) 5{10}  10 км    3/0 верхняя 
[Ci fib]
+10.6 -1.5 43 +9  1026.2  -0.7  763  296           
15 01.11.12 080 (В) 5{10}  10 км    1/0 верхняя 
[Ci fib]
+6.6 -0.4 61 +5  1026.3  -0.1  763  300    +10.7       
18 01.11.12 080 (В) 7-10{10}  10 км    ясно 
+5.5 -0.5 65 +3  1025.9  -0.4  762  301           
21 01.11.12 080 (В) 7-10{11}  10 км    ясно 
+4 +0 75 +1  1026.4  0.4  763  303           
Время (UTC), дата Ветер
(°,м/с) 
Видим.   Явления Облачность Т
(°С)
Тd
(°С)
f(%) Тe
(°С)
Pmin
(гПа)
dP
(гПа)
Po
(мм)
O2
(г/м3)
Тmin Tmax R s Состояние
почвы